DateTimeUTC,F1_A11,F1_S11,BsB_S11,BsG_S11,BsR_S11,BbsB_S11,BbsG_S11,BbsR_S11,BaB_A11,BaG_A11,BaR_A11,Tu_S11,T_S11,Uu_S11,U_S11,P_S11,T1_A11
2021-05-30T21:00:00Z,00000200,20000000,,,,,,,0000.29,0000.20,0000.13,18.9,25.7,04.2,02.8,0658.4,31.1
2021-05-30T21:01:00Z,00000200,20000000,,,,,,,-000.31,-000.19,-000.14,18.9,25.7,04.2,02.8,0658.4,31.1
2021-05-30T21:02:00Z,00000200,20000000,,,,,,,0000.07,0000.13,-000.07,18.8,25.7,04.3,02.8,0658.4,31.1
2021-05-30T21:03:00Z,00000200,60000000,,,,,,,0000.09,0000.24,0000.40,18.8,25.7,04.3,02.8,0658.4,31.1
2021-05-30T21:04:00Z,00000200,40000000,0001.94,0001.12,0000.74,0000.18,0000.25,0000.13,0000.40,0000.60,0000.49,19.0,25.5,04.2,02.8,0659.3,31.1
2021-05-30T21:05:00Z,00000200,00000000,0001.38,0000.96,0000.95,0000.49,0000.06,0000.10,0000.63,0000.30,0000.11,19.0,25.5,04.2,02.8,0659.4,31.1
2021-05-30T21:06:00Z,00000200,00000000,0001.49,0001.24,0000.83,0000.21,0000.14,0000.34,-000.01,-000.00,-000.00,19.0,25.5,04.2,02.9,0659.4,31.1
2021-05-30T21:07:00Z,00000200,00000000,0001.86,0000.72,0000.32,0000.43,0000.56,0000.17,0000.62,0000.27,-000.03,19.0,25.4,04.3,02.9,0659.4,31.1
2021-05-30T21:08:00Z,00000200,00000000,0002.07,0001.08,0000.83,0001.12,0000.11,0000.11,0000.01,0000.29,0000.27,19.0,25.4,04.3,02.9,0659.4,31.1
2021-05-30T21:09:00Z,00000200,00000000,0002.06,0000.95,0000.64,0000.65,0000.13,0000.11,0000.56,0000.07,0000.52,19.0,25.4,04.2,02.9,0659.4,31.1
2021-05-30T21:10:00Z,00000200,00000000,0002.54,0001.02,0000.33,0000.76,0000.17,0000.11,0000.40,0000.64,0000.26,19.0,25.4,04.3,02.9,0659.4,31.1
2021-05-30T21:11:00Z,00000200,00000000,0001.80,0000.95,0000.61,0000.37,0000.24,0000.13,0000.40,0000.36,0000.50,19.0,25.4,04.5,03.0,0659.4,31.1
2021-05-30T21:12:00Z,00000200,00000000,0001.15,0000.47,0000.69,0000.33,0000.10,0000.06,0000.53,0000.47,-000.04,19.0,25.4,04.4,03.0,0659.4,31.1
2021-05-30T21:13:00Z,00000200,00000000,0002.13,0000.91,0000.88,0000.07,0000.22,0000.11,0000.34,0000.01,0000.18,19.0,25.4,04.5,03.0,0659.4,31.1
2021-05-30T21:14:00Z,00000200,00000000,0001.36,0001.20,0000.59,0000.23,0000.15,0000.32,0000.29,0000.58,0000.32,19.0,25.4,04.4,03.0,0659.4,31.1
2021-05-30T21:15:00Z,00000200,00000000,0001.65,0001.10,0000.83,0000.42,0000.13,0000.25,0000.19,0000.08,0000.30,19.0,25.4,04.4,03.0,0659.4,31.1
2021-05-30T21:16:00Z,00000200,00000000,0001.45,0000.91,0000.60,0000.55,0000.34,0000.22,0000.15,-000.24,0000.02,19.0,25.4,04.2,02.9,0659.4,31.1
2021-05-30T21:17:00Z,00000200,00000000,0001.74,0000.90,0000.55,0000.26,0000.14,-000.07,0000.28,0001.04,-000.01,19.0,25.4,04.3,02.9,0659.4,31.1
2021-05-30T21:18:00Z,00000200,00000000,0002.15,0001.13,0000.23,0000.78,0000.20,0000.00,0000.41,0000.09,0000.71,19.0,25.4,04.3,02.9,0659.4,31.1
2021-05-30T21:19:00Z,00000200,00000000,0001.87,0001.13,0000.79,0000.38,0000.16,0000.12,0000.40,0000.75,0000.10,19.0,25.4,04.2,02.8,0659.4,31.1
2021-05-30T21:20:00Z,00000200,00000000,0002.18,0000.72,0000.55,0000.36,0000.20,0000.02,0000.48,0000.09,0000.19,19.0,25.4,04.2,02.9,0659.4,31.1
2021-05-30T21:21:00Z,00000200,00000000,0001.47,0000.62,0000.67,0000.48,0000.20,-000.01,0000.16,-000.45,0000.07,19.0,25.4,04.3,02.9,0659.4,31.1
2021-05-30T21:22:00Z,00000200,00000000,0001.65,0001.27,0000.59,0000.31,0000.22,0000.01,0000.35,0000.85,0000.37,19.0,25.4,04.4,03.0,0659.4,31.1
2021-05-30T21:23:00Z,00000200,00000000,0001.56,0001.07,0000.63,0000.41,0000.42,0000.30,0000.01,-000.01,0000.30,19.0,25.4,04.2,02.8,0659.4,31.1
2021-05-30T21:24:00Z,00000200,00000000,0001.53,0000.73,0000.80,0000.34,-000.01,0000.26,0000.59,0000.82,0000.20,19.0,25.4,04.2,02.8,0659.4,31.1
2021-05-30T21:25:00Z,00000200,00000000,0002.10,0001.03,0000.75,0000.51,0000.08,0000.23,0000.35,-000.07,0000.18,19.0,25.4,04.1,02.8,0659.4,31.1
2021-05-30T21:26:00Z,00000200,00000000,0001.21,0000.88,0000.46,0000.76,0000.32,-000.06,0000.52,0000.61,0000.31,19.0,25.4,04.1,02.8,0659.4,31.1
2021-05-30T21:27:00Z,00000200,00000000,0002.26,0000.79,0000.85,0000.39,0000.25,0000.25,0000.28,0000.04,0000.23,19.0,25.3,04.2,02.8,0659.4,31.1
2021-05-30T21:28:00Z,00000200,00000000,0001.28,0001.26,0001.04,0000.17,0000.14,0000.41,0000.18,0000.67,0000.51,19.0,25.4,04.2,02.9,0659.4,31.1
2021-05-30T21:29:00Z,00000200,00000000,0002.80,0000.79,0000.74,0000.15,0000.31,0000.03,0000.45,0000.39,-000.05,19.0,25.3,04.2,02.9,0659.4,31.1
2021-05-30T21:30:00Z,00000200,00000000,0001.88,0001.26,0000.62,0000.32,0000.19,0000.22,0000.35,0000.04,0000.27,19.0,25.3,04.2,02.8,0659.4,31.1
2021-05-30T21:31:00Z,00000200,00000000,0001.33,0000.94,0000.37,0000.40,0000.39,0000.36,0000.53,0000.22,0000.29,19.0,25.3,04.2,02.9,0659.4,31.1
2021-05-30T21:32:00Z,00000200,00000000,0001.99,0000.95,0000.47,0000.30,0000.23,-000.04,0000.08,0000.29,0000.39,19.0,25.3,04.2,02.9,0659.4,31.1
2021-05-30T21:33:00Z,00000200,00000000,0002.01,0001.39,0000.49,0000.36,0000.36,-000.12,0000.57,0000.51,0000.28,19.0,25.3,04.3,02.9,0659.4,31.1
2021-05-30T21:34:00Z,00000200,00000000,0001.96,0000.74,0000.44,0000.50,0000.20,0000.18,0000.00,-000.02,0000.27,19.0,25.3,04.2,02.9,0659.4,31.1
2021-05-30T21:35:00Z,00000200,00000000,0002.42,0000.98,0000.76,0000.55,0000.15,-000.05,0000.30,0000.41,0000.09,19.0,25.3,04.1,02.8,0659.4,31.1
2021-05-30T21:36:00Z,00000200,00000000,0002.34,0001.08,0000.48,0000.69,0000.04,-000.03,0000.47,0000.41,-000.07,19.0,25.3,04.1,02.8,0659.4,31.1
2021-05-30T21:37:00Z,00000200,00000000,0001.49,0000.91,0000.45,0000.93,0000.45,-000.02,0000.26,-000.27,0000.62,19.0,25.3,04.1,02.8,0659.4,31.1
2021-05-30T21:38:00Z,00000200,00000000,0001.38,0000.91,0000.86,0000.51,0000.15,0000.41,0000.27,0000.54,0000.24,19.0,25.3,04.0,02.7,0659.4,31.1
2021-05-30T21:39:00Z,00000200,00000000,0001.67,0001.06,0000.41,0000.18,0000.48,-000.05,0000.57,0000.78,0000.22,19.0,25.3,04.1,02.8,0659.4,31.1
2021-05-30T21:40:00Z,00000200,00000000,0002.13,0000.96,0000.40,0000.32,0000.20,0000.12,0000.41,0000.28,0000.06,19.0,25.3,04.1,02.8,0659.4,31.1
2021-05-30T21:41:00Z,00000200,00000000,0001.43,0000.73,0000.73,0000.31,0000.35,0000.21,0000.13,0000.41,0000.45,19.0,25.3,04.0,02.7,0659.4,31.1
2021-05-30T21:42:00Z,00000200,00000000,0001.50,0001.05,0000.73,0000.26,-000.10,0000.13,0000.43,-000.09,0000.01,19.0,25.3,04.1,02.8,0659.4,31.1
2021-05-30T21:43:00Z,00000200,00000000,0001.73,0000.91,0000.54,0000.19,0000.30,0000.13,0000.48,0000.65,0000.59,19.0,25.3,04.0,02.8,0659.4,31.1
2021-05-30T21:44:00Z,00000200,00000000,0002.04,0000.85,0000.79,0000.49,0000.35,0000.01,0000.22,-000.07,0000.26,18.9,25.3,04.1,02.8,0659.4,31.1
2021-05-30T21:45:00Z,00000200,00000000,0001.27,0001.05,0000.56,0000.35,0000.41,0000.05,0000.35,0000.53,0000.06,18.9,25.3,04.1,02.8,0659.4,31.1
2021-05-30T21:46:00Z,00000200,00000000,0001.88,0001.12,0000.78,0000.45,0000.24,0000.01,0000.51,0000.10,0000.33,18.9,25.3,04.0,02.7,0659.4,31.1
2021-05-30T21:47:00Z,00000200,00000000,0001.53,0000.79,0000.89,0000.39,0000.20,0000.45,0000.14,0000.12,0000.17,18.9,25.3,04.1,02.8,0659.4,31.1
2021-05-30T21:48:00Z,00000200,00000000,0002.18,0001.07,0000.39,0000.26,0000.19,0000.39,-000.16,0000.07,-000.00,18.9,25.3,04.0,02.7,0659.4,31.1
2021-05-30T21:49:00Z,00000200,00000000,0001.75,0000.59,0000.61,0000.31,-000.03,0000.21,0000.25,0000.40,0000.34,18.9,25.3,04.0,02.7,0659.4,31.1
2021-05-30T21:50:00Z,00000200,00000000,0001.54,0000.82,0000.41,0001.16,0000.46,0000.22,0000.45,0000.17,-000.26,18.9,25.3,03.8,02.6,0659.4,31.1
2021-05-30T21:51:00Z,00000200,00000000,0002.17,0000.89,0000.82,0000.09,0000.30,0000.45,0000.12,-000.13,0000.13,18.9,25.3,03.7,02.5,0659.4,31.1
2021-05-30T21:52:00Z,00000200,00000000,0001.68,0000.90,0000.42,0000.49,0000.15,0000.02,0000.12,0000.44,0000.48,18.9,25.3,03.5,02.4,0659.4,31.1
2021-05-30T21:53:00Z,00000200,00000000,0001.46,0001.25,0000.60,0000.34,0000.15,0000.07,0000.64,0000.49,0000.14,18.9,25.3,03.7,02.5,0659.4,31.1
2021-05-30T21:54:00Z,00000200,00000000,0002.22,0000.92,0000.69,0000.38,0000.11,0000.09,0000.20,0000.43,0000.22,18.9,25.3,03.6,02.4,0659.4,31.1
2021-05-30T21:55:00Z,00000200,00000000,0002.11,0000.76,0000.54,0000.83,0000.31,0000.22,0000.51,0000.29,0000.27,18.9,25.3,03.8,02.5,0659.4,31.1
2021-05-30T21:56:00Z,00000200,00000000,0002.62,0001.01,0000.44,0000.36,0000.21,-000.27,0000.66,0000.45,0000.62,18.9,25.2,03.8,02.5,0659.4,31.1
2021-05-30T21:57:00Z,00000200,40000000,,,,,,,0000.20,0000.32,0000.22,18.9,25.3,04.1,02.8,0659.5,31.1
2021-05-30T21:58:00Z,00000200,60000000,,,,,,,-000.26,-000.37,-000.58,18.6,25.4,04.0,02.6,0658.4,31.1
2021-05-30T21:59:00Z,00000200,20000000,,,,,,,0000.04,0000.29,0000.57,18.6,25.5,03.8,02.5,0658.4,31.1
